Simultaneous Nadir Overpasses (SNOs) Predictions

Prediction of SNOs near US between AQUA and NPP Satellite Orbit:

Table of predicted SNOs near US for the next 10.0 days since TLE Epoch: 12/31/2011
Index Date (AQUA) Time (AQUA) AQUA Lat,Lon Date (NPP) Time (NPP) NPP Lat,Lon Distance(km) Time Diff (sec)
1 12/31/2011 19:06:03 49.99, -92.60 12/31/2011 19:01:00 49.65, -94.37 132.55 303
2 12/31/2011 20:44:56 49.98,-117.32 12/31/2011 20:42:28 49.55,-119.70 177.78 148
3 01/03/2012 10:11:45 26.88,-125.00 01/03/2012 10:05:19 26.48,-125.79 90.40 386
4 01/06/2012 07:18:29 49.94, -76.01 01/06/2012 07:19:47 50.36, -78.17 160.85 78
5 01/06/2012 08:57:23 49.89,-100.76 01/06/2012 09:01:15 50.46,-103.50 205.65 232
6 01/08/2012 18:16:40 49.99, -80.25 01/08/2012 18:09:59 49.71, -81.67 106.25 401
7 01/08/2012 19:55:33 49.98,-104.97 01/08/2012 19:51:27 49.61,-107.00 151.42 246
8 01/08/2012 21:30:40 36.51,-125.00 01/08/2012 21:29:03 36.07,-127.45 225.53 97




NCC Satellite Simultaneous Nadir Overpasses (SNOs) Prediction Service
